Regional Weather Roundup
Issued by NWS

Home | Current Version | Previous Version | Text Only | Print | Product List | Glossary Off
Versions: 1 2 3 4 5 6 7 8 9 10 11 12 13 14 15 16 17 18 19 20 21 22 23 24 25 26 27 28 29 30 31 32 33 34 35 36 37 38 39 40 41 42 43 44 45 46 47 48 49 50

000
ASUS43 KLOT 280808
RWRIL

ILLINOIS REGIONAL WEATHER ROUNDUP
NATIONAL WEATHER SERVICE CHICAGO/ROMEOVILLE IL
300 AM CDT SAT MAY 28 2016

NOTE: "FAIR" INDICATES FEW OR NO CLOUDS BELOW 12,000 FEET WITH NO
SIGNIFICANT WEATHER AND/OR OBSTRUCTIONS TO VISIBILITY.

* THESE STATIONS ARE NOT UNDER NWS QUALITY CONTROL. THEY ALSO MAY NOT
  REPORT WEATHER SUCH AS PRECIPITATION OR FOG.

ILZ001-002-007-009-015-016-024-280900-
NORTHWEST ILLINOIS

CITY           SKY/WX    TMP DP  RH WIND       PRES   REMARKS
MOLINE         CLOUDY    71  65  81 S14G21    29.74S
STERLING*      CLOUDY    69  66  90 SE8       29.79S
SAVANNA*       CLOUDY    69  66  91 S15G23    29.75S
$$

ILZ003-004-008-010-011-017-018-280900-
NORTH CENTRAL ILLINOIS

CITY           SKY/WX    TMP DP  RH WIND       PRES   REMARKS
ROCKFORD       CLOUDY    70  65  84 S16       29.82F
FREEPORT*      LGT RAIN  67  65  92 S18G25    29.80S
ROCHELLE*      CLOUDY    67  65  91 S10       29.82F
DE KALB*       CLOUDY    67  65  91 SE13      29.84S
$$

ILZ005-006-012>014-019>023-280900-
NORTHEAST ILLINOIS

CITY           SKY/WX    TMP DP  RH WIND       PRES   REMARKS
CHICAGO-OHARE  CLOUDY    68  65  90 S8        29.85F
CHICAGO-MIDWAY CLOUDY    70  64  81 S8        29.86F
AURORA         CLOUDY    69  65  86 SE13      29.84F
LANSING*       MOCLDY    68  64  86 S6        29.89S
JOLIET*        CLOUDY    70  66  87 S8        29.86S
WAUKEGAN       CLOUDY    69  65  86 S8        29.85S
DUPAGE AIRPORT CLOUDY    69  63  81 S8        29.84F
KANKAKEE*      CLOUDY    69  64  85 SE8       29.88F
WHEELING       CLOUDY    68  64  87 SE8       29.86S
MORRIS*        MOCLDY    69  65  88 S13       29.83F
ROMEOVILLE*    CLOUDY    68  64  85 S15       29.86S
NORTHERLY ISL    N/A     66  61  84 S9          N/A
NORTHERLY ISL    N/A     66  61  84 S9          N/A
$$

LMZ740>746-280900-
SOUTHERN LAKE MICHIGAN

STATION/POSITION SKY/WX   TEMP    WIND        PRES    VSBY  WAVE
                          AIR SEA DIR/SP/G                  HT/PER
                          (F)     (DEG/KT/KT) (MB)    (MI)  (FT/S)
SOUTHERN BUOY              55 50  150/ 12/ 14 1011.5R         1/ 4
WILMETTE HARBOR            59 53  160/  8/ 10   N/A           1/ 3
HARRISON CRIB              68     180/ 13/ 14   N/A
BURNHAM HARBOR             67     160/  8/ 11   N/A
CALUMET HARBOR             70     170/  8/ 11 1011.2S
BURNS HARBOR               70     160/ 10/ 16 1012.9R
MICHIGAN CITY              70     130/  8/ 10   N/A
MICHIGAN CITY 6N           65 58  170/  8/ 10   N/A           1
ST. JOSEPH                 66 61  140/  8/ 10   N/A           1/ 3
$$

ILZ025>027-034>036-040-047-049-050-058-095>099-280900-
WEST-CENTRAL ILLINOIS

CITY           SKY/WX    TMP DP  RH WIND       PRES   REMARKS
QUINCY         CLOUDY    69  66  90 S10       29.78S
GALESBURG*     CLOUDY    68  66  94 S15       29.77S
MACOMB*        CLOUDY    69  67  94 S10       29.80S
JACKSONVILLE*  CLOUDY    70  67  90 S12G17    29.82R
PITTSFIELD*    MOCLDY    69  68  94 S10       29.82S
$$

ILZ028>032-037-038-041>044-048-051>054-059>061-280900-
CENTRAL ILLINOIS

CITY           SKY/WX    TMP DP  RH WIND       PRES   REMARKS
PONTIAC        CLOUDY    70  67  92 SE9       29.86S
BLOOMINGTON    CLOUDY    69  68  97 S16       29.86F
DECATUR        CLOUDY    71  65  81 S14       29.87R
PEORIA         CLOUDY    70  66  87 S16       29.80S
LACON*         CLOUDY    69  65  85 S12       29.80S
LINCOLN*       CLOUDY    71  67  88 S15       29.83S
SPRINGFIELD    CLOUDY    72  66  81 S14       29.84R
TAYLORVILLE    CLOUDY    69  66  90 S14G22    29.86R
$$

ILZ033-039-045-046-055>057-062-063-280900-
EAST-CENTRAL ILLINOIS

CITY           SKY/WX    TMP DP  RH WIND       PRES   REMARKS
CHAMPAIGN      CLOUDY    71  64  78 S18       29.89R
RANTOUL*       PTCLDY    73  66  80 S15       29.88S
MATTOON        CLOUDY    70  63  78 S9        29.90R
$$

ILZ079-100>102-280900-
SOUTHWEST ILLINOIS

CITY           SKY/WX    TMP DP  RH WIND       PRES   REMARKS
ALTON          MOCLDY    69  64  84 S12       29.86R
BELLEVILLE     MOCLDY    68  68 100 E6        29.86R
CAHOKIA*       PTCLDY    71  64  78 S7        29.85R
SPARTA*        CLOUDY    69  65  86 S8        29.89S
$$

ILZ064>066-069>071-074>076-080>082-084>086-088>090-092>094-280900-
SOUTH-CENTRAL ILLINOIS

CITY           SKY/WX    TMP DP  RH WIND       PRES   REMARKS
CARBONDALE     CLOUDY    69  64  84 S10       29.90R
CAIRO*         CLOUDY    69  66  92 CALM      29.91S
EFFINGHAM*     CLOUDY    70  67  92 SE8       29.93R
MARION         CLOUDY    72  68  88 S10       29.92S
MT. VERNON     CLOUDY    70  63  78 S9        29.91S
CENTRALIA*     CLOUDY    70  67  92 S9        29.89S
SALEM*         CLOUDY    71  66  83 S8        29.90R
METROPOLIS*    CLOUDY    72  67  85 CALM      29.94R
$$

ILZ067-068-072-073-078-083-087-091-280900-
SOUTHEAST ILLINOIS

CITY           SKY/WX    TMP DP  RH WIND       PRES   REMARKS
LAWRENCEVILLE  PTCLDY    74  65  73 S14       29.93F
FLORA*         CLOUDY    71  67  86 S7        29.92S
FAIRFIELD*     CLOUDY    71  66  83 S5        29.91S
HARRISBURG*    CLOUDY    72  66  81 S3        29.93R
ROBINSON*      PTCLDY    72  64  77 S9        29.93S
CARMI*         MOCLDY    71  66  84 SE10      29.92S
$$

ABBREVIATIONS USED IN REMARKS
   TC - TEMPERATURE IN CELSIUS
  WCI - WIND CHILL INDEX
   HX - HEAT INDEX
  VSB - VISIBILITY
$$





USA.gov is the U.S. government's official web portal to all federal, state and local government web resources and services.